STARLINK-5891 (56351 NORAD) Tracking and Keplerian Element Data

This shows tracking and keplerian element data for the satellite.

Feedback or suggestion? Click here.




ElementValue
Catalog56351
NameSTARLINK-5891
Epoch Orbit181
Epoch Day127.00001157
Epoch Year2023
RAAN126.4754
Inclination97.6634
Eccentricity0.0001351
Argument of Perigee90.4224
Mean Anonmoly242.4093
Mean Motion15.68268473
Decay Rate-0.00870371
L11 56351U 23058AL 23127.00001157 -.00870371 00000+0 -86513-2 0 9999
L22 56351 97.6634 126.4754 0001351 90.4224 242.4093 15.68268473 1811



Live tracking and technical data element details for STARLINK-5891 (NORAD 56351). STARLINK-5891 can be tracked NOW for your location showing map with azimuth and elevation plus other details from your city location.







IsCatalogInMostPopularTable: catalog: 56351, numindb: 5
Update: records affected: 1



GetName: 56351 STARLINK-5891

Hit Count: updated at: Wed, 07 Jun 2023 08:37:00 GMT